{"data":{"norad_id":63147,"epoch":"2026-05-24T19:15:20.670912Z","epoch_age_seconds":106202,"freshness":"FRESH","line1":"1 63147U 25043R   26144.80232258  .00011462  00000+0  42527-3 0  9998","line2":"2 63147  42.9992 313.2414 0001766 259.5304 100.5349 15.27588409 68920","mean_motion":15.27588409,"eccentricity":0.0001766,"inclination_deg":42.9992,"raan_deg":313.2414,"arg_perigee_deg":259.5304,"mean_anomaly_deg":100.5349,"bstar":0.00042527,"rev_number":6892,"period_min":94.266229798291,"perigee_km":481.81223556617,"apogee_km":484.23559760191,"semimajor_km":6861.160916584,"source":"CELESTRAK","updated_at":"2026-05-25T13:38:19.917024Z"}}